カタログに戻る

GAO FEN 14-02

運用中軍事SSO
NORAD 66175·PAYLOAD·🇨🇳 China
この衛星名は、まだ公式ソースで確認されていません。

打ち上げ Oct 26, 2025 から Xichang Satellite Launch Center

Loading…

次のパス (今後24時間)

TLE

最新Source: Space-Track

元期: Sep 14, 2026, 04:20 UTC

1 66175U 25242A   26257.18117929  .00003652  00000-0  15626-3 0  9999
2 66175  97.4051 331.9347 0011208  23.6388 336.5362 15.23399767 49266

AllMySatでGAO FEN 14-02をリアルタイム追跡

Download on the App Store